Aérodrome :
LOGIN :

S'inscrire | Disclaimer

   EN    FR    IT 

 










Légende :    VFR   VFR Marginal   IFR   IFR Intensif   IFR Très Intensif
Visi : 
Plafond : 
>= 8 km
>= 3000ft
5 à 8 km
1000 à 3000 ft
1500m à 5 km
500 à 1000 ft
800 à 1500m
200 à 500 ft
< 800m
< 200 ft
Symboles :   Orages  Brouillard  Fortes neiges  Fortes précipitations  Vent > 20 kt
SIGMETs :   Divers  Orages  Givrage  Turbulence  Onde Orograph.  Cendres Volcan.







- Altitude de l'aérodrome : 2297 ft


LEGA - Armilla

DERNIER METAR :
  • 280600Z 32005KT 9999 FEW028 18/12 Q1017

METARs EXPIRÉS :
  • 280500Z VRB03KT 9999 FEW028 17/12 Q1016

TAF TAF LEGA
Valide du 28 à 06h jusqu'au 28 à 15h UTC


280500Z 2806/2815 32005KT 9999 SCT020
Pas de NOTAMs connus pour ce terrain.
1 SIGMET publié pour la FIR Madrid (LECM) :
 
Turbulence forte
LECM SIGMET 1 VALID 280300/280700 LEVA
LECM MADRID FIR/UIR SEV TURB FCST WI N45 W00850 - N4240 W00530 - N42 W00640 - N4350 W01250 - N45 W013 FL210/220260 MOV ENE NC=



MET'MAP, la Météo Aéronautique d'un coup d'oeil ! - Copyright ORBIFLY Décembre 2007 - Disclaimer

ORBIFLY MET'MAP TEAM :

Programmation & Développement : Alexandra Zaïnal
Conception & Développement : Baudouin d'Aumeries
Co-Programmation & Développement : Marc-Olivier Méhu
Soutien technique & logistique : Manuel Goepfert

Contact : metmap@orbifly.com




SOURCES & CREDITS :

   NOAA